Regional Weather Roundup
Issued by NWS

Home | Current Version | Previous Version | Graphics & Text | Print | Product List | Glossary On
Versions: 1 2 3 4 5 6 7 8 9 10 11 12 13 14 15 16 17 18 19 20 21 22 23 24 25 26 27 28 29 30 31 32 33 34 35 36 37 38 39 40 41 42 43 44 45 46 47 48 49 50
000
ASUS43 KOAX 290702
RWRNE

WEATHER ROUNDUP FOR NEBRASKA
NATIONAL WEATHER SERVICE OMAHA NE
200 AM CDT SUN MAY 29 2016

NOTES: SATELLITE DATA IS BEING USED TO AUGMENT CLOUD COVER ABOVE
       12000 FEET.
       "FAIR" INDICATES FEW OR NO CLOUDS BELOW 12,000 FEET WITH NO
       SIGNIFICANT WEATHER AND/OR OBSTRUCTIONS TO VISIBILITY.

  * THESE STATIONS DO NOT REPORT WEATHER SUCH AS RAIN...SNOW OR FOG.

NEZ001>004-019>022-054>056-290800-
NEBRASKA PANHANDLE

CITY           SKY/WX    TMP DP  RH WIND       PRES   REMARKS
SCOTTSBLUFF    CLEAR     49  44  83 E6        30.09S
ALLIANCE       CLEAR     42  41  96 SW7       30.08S
CHADRON        CLEAR     42  40  92 CALM      30.07S
SIDNEY         CLEAR     46  44  93 NE7       30.11S
$$

NEZ057>060-069>072-079>082-290800-
SOUTHWEST NEBRASKA

CITY           SKY/WX    TMP DP  RH WIND       PRES   REMARKS
NORTH PLATTE   CLOUDY    52  50  93 W6        30.06R
IMPERIAL       CLEAR     56  50  80 E6        30.07R
LEXINGTON      CLOUDY    55  51  87 S5        30.03F
MCCOOK         LGT RAIN  58  51  78 N8        30.08R
$$

NEZ005>010-023>029-035>040-094-290800-
NORTH CENTRAL NEBRASKA

CITY           SKY/WX    TMP DP  RH WIND       PRES   REMARKS
VALENTINE      PTCLDY    56  50  80 W6        30.04R
AINSWORTH      LGT RAIN  58  55  88 S7        30.03R
BROKEN BOW     MOCLDY    58  53  84 N3        30.00F
ORD            PTCLDY    57  55  93 CALM      30.00F
$$

NEZ041-046>049-061>064-073>077-083>087-290800-
SOUTH CENTRAL NEBRASKA

CITY           SKY/WX    TMP DP  RH WIND       PRES   REMARKS
GRAND ISLAND   LGT RAIN  62  58  86 SE5       30.01F
HASTINGS       MOCLDY    60  54  80 CALM      30.03F
KEARNEY *      CLOUDY    61  50  67 CALM      30.04F
YORK           MOCLDY    59  57  94 CALM      30.02F
$$

NEZ011>018-030>034-042>045-290800-
NORTHEAST NEBRASKA

CITY           SKY/WX    TMP DP  RH WIND       PRES   REMARKS
NORFOLK        CLEAR     53  52  96 SW3       29.99F
ALBION         CLOUDY    55  52  92 CALM      30.01F
BLAIR          CLEAR     59  55  87 NW3       29.99S
FREMONT        CLEAR     56  55  97 CALM      30.00S
TEKAMAH        CLEAR     57  53  86 W7        29.98S
$$

NEZ050>053-065>068-078-088>093-290800-
SOUTHEAST NEBRASKA

CITY           SKY/WX    TMP DP  RH WIND       PRES   REMARKS
LINCOLN        CLEAR     60  56  86 CALM      30.01S
OMAHA EPPLEY   CLEAR     59  54  83 NW5       29.99S
FALLS CITY     CLEAR     64  59  83 W6        29.99F
PLATTSMOUTH    CLEAR     61  58  88 W5        30.00S
$$

NEZ044-045-051>053-067-290800-
OMAHA AREA

CITY           SKY/WX    TMP DP  RH WIND       PRES   REMARKS
OMAHA EPPLEY   CLEAR     59  54  83 NW5       29.99S
BLAIR          CLEAR     59  55  87 NW3       29.99S
FREMONT        CLEAR     56  55  97 CALM      30.00S
OFFUTT AFB     CLEAR     56  55  95 W3        29.99R
PLATTSMOUTH    CLEAR     61  58  88 W5        30.00S
$$




USA.gov is the U.S. government's official web portal to all federal, state and local government web resources and services.